Location: Ammerl�gen
(47.2167°N, 9.6000°E)
Time: 03:16:07
(UTC+00:00)

NOAA 19 - Pass Details

Date: 06 December 2021
Orbit: 841 x 860 km, 99.2° (Epoch: 16 January)

Event Time Altitude Azimuth Distance (km) Brightness Sun altitude
Rises 16:30:14 0° 120° (ESE) 3,391 8.0 -9.5°
Reaches altitude 10° 16:33:05 10° 106° (ESE) 2,462 7.2 -10.0°
Maximum altitude 16:37:06 22° 58° (ENE) 1,787 6.3 -10.6°
Drops below altitude 10° 16:41:09 10° 10° (N) 2,480 7.3 -11.3°
Sets 16:44:02 0° 356° (N) 3,423 8.2 -11.7°
